sat.trackr.live / text

‹ back to catalog

STARLINK-31309

NORAD 59164 · 2024-044N

PAYLOAD ACTIVE UNKNOWN

§ Identity

Operator
Country
US
Launch date
2024-03-04
Launch site
AFETR
Launch vehicle
Mass (kg)
RCS (m²)

Purposes: comms

External: N2YO · Heavens-Above · Gunter

§ Orbital elements

Epoch: 2026-09-20T21:49:30.186624Z

Period
94.27 min
Inclination
43.0022°
Eccentricity
0.0001243
Mean motion
15.27564228 rev/d
Perigee alt
482.2 km
Apogee alt
483.9 km
Semi-major
6,861.2 km
B*
4.2231e-5
RAAN
84.3780°
Arg perigee
271.8369°
Mean anomaly
88.2340°
Rev number
14,345

§ Raw data

STARLINK-313091 59164U 24044N   26263.90937716  .00000900  00000+0  42231-4 0  99942 59164  43.0022  84.3780 0001243 271.8369  88.2340 15.27564228143458

JSON: /api/v1/satellites/59164 · /tle

For live sub-satellite position, see the globe view (requires WebGL).

§ Visibility from observer

Set your observer location to see the next 7 days of passes ≥ 10°. The values pass through the URL so the page stays shareable.

No JS? Fill the form by hand. The geolocation button needs JavaScript.